FW7441 Weather Reports


Display with metric or nautical units.
time (UTC)temp
F
wind
direction
speed
MPH
gust
MPH
rain 1hr
in
rain 24hr
in
rain mn
in
humidity
%
barometer
mb
20260510200442 61 281 3.0 5.0 0.00 0.00 0.00 36 1018.8
20260510195941 62 311 3.0 6.0 0.00 0.00 0.00 37 1019.0
20260510195433 60 310 2.0 3.0 0.00 0.00 0.00 38 1018.9
20260510194928 60 25 2.0 2.0 0.00 0.00 0.00 37 1019.0
20260510194425 61 294 2.0 3.0 0.00 0.00 0.00 38 1019.2
20260510193920 61 267 1.0 2.0 0.00 0.00 0.00 39 1019.2
20260510193416 62 297 1.0 1.0 0.00 0.00 0.00 39 1018.8
20260510192912 62 353 2.0 3.0 0.00 0.00 0.00 37 1019.0
20260510192407 62 297 2.0 2.0 0.00 0.00 0.00 37 1018.9
20260510191903 62 256 0.0 1.0 0.00 0.00 0.00 39 1018.9
20260510191359 64 273 0.0 0.0 0.00 0.00 0.00 36 1019.0
20260510190856 64 247 3.0 3.0 0.00 0.00 0.00 37 1018.9
20260510190354 64 227 3.0 5.0 0.00 0.00 0.00 36 1018.9
20260510185850 63 251 2.0 2.0 0.00 0.00 0.00 39 1019.0
20260510185348 62 271 3.0 3.0 0.00 0.00 0.00 37 1019.2
20260510184845 62 291 2.0 2.0 0.00 0.00 0.00 38 1019.0
20260510184342 64 274 3.0 3.0 0.00 0.00 0.00 39 1019.0
20260510183841 63 316 2.0 2.0 0.00 0.00 0.00 37 1018.8
20260510183338 63 258 2.0 2.0 0.00 0.00 0.00 37 1019.0
20260510182833 61 300 2.0 2.0 0.00 0.00 0.00 39 1018.9
20260510182330 62 292 2.0 3.0 0.00 0.00 0.00 39 1019.1
20260510181826 62 343 0.0 1.0 0.00 0.00 0.00 36 1019.0
20260510181323 61 219 1.0 1.0 0.00 0.00 0.00 35 1019.1
20260510180819 63 111 1.0 1.0 0.00 0.00 0.00 37 1019.2
20260510180316 62 241 2.0 2.0 0.00 0.00 0.00 38 1018.8
20260510175813 62 329 1.0 2.0 0.00 0.00 0.00 37 1018.9
20260510175309 61 277 2.0 2.0 0.00 0.00 0.00 41 1019.3
20260510174806 63 212 0.0 1.0 0.00 0.00 0.00 37 1019.3
20260510174303 65 334 2.0 3.0 0.00 0.00 0.00 39 1019.2
20260510173759 64 103 1.0 1.0 0.00 0.00 0.00 36 1019.2
20260510173255 62 171 1.0 2.0 0.00 0.00 0.00 34 1019.2
20260510172751 62 328 2.0 5.0 0.00 0.00 0.00 41 1019.2
20260510172247 60 210 1.0 1.0 0.00 0.00 0.00 40 1019.1
20260510171744 61 8 3.0 3.0 0.00 0.00 0.00 36 1018.9
20260510171241 60 4 6.0 9.0 0.00 0.00 0.00 39 1019.1
20260510170738 60 91 2.0 3.0 0.00 0.00 0.00 40 1019.4
20260510170234 62 26 2.0 3.0 0.00 0.00 0.00 36 1019.2
20260510165724 61 246 5.0 6.0 0.00 0.00 0.00 36 1019.2
20260510165221 61 23 3.0 3.0 0.00 0.00 0.00 42 1019.3
20260510164718 60 277 3.0 5.0 0.00 0.00 0.00 38 1019.3
20260510164216 60 314 3.0 5.0 0.00 0.00 0.00 38 1019.2
20260510163716 61 338 1.0 1.0 0.00 0.00 0.00 42 1019.1
20260510163212 62 314 2.0 2.0 0.00 0.00 0.00 40 1019.1
20260510162711 61 59 2.0 2.0 0.00 0.00 0.00 38 1019.1
20260510162209 62 236 2.0 2.0 0.00 0.00 0.00 42 1018.9
20260510161705 60 65 2.0 3.0 0.00 0.00 0.00 38 1019.0
20260510161201 60 248 3.0 3.0 0.00 0.00 0.00 37 1019.1
20260510160658 60 297 2.0 2.0 0.00 0.00 0.00 42 1018.9
20260510160153 60 295 1.0 2.0 0.00 0.00 0.00 44 1018.9
20260510155649 59 250 1.0 2.0 0.00 0.00 0.00 43 1019.0
20260510155145 58 206 1.0 1.0 0.00 0.00 0.00 42 1019.1
20260510154641 58 198 4.0 5.0 0.00 0.00 0.00 39 1019.1
20260510154137 60 234 1.0 2.0 0.00 0.00 0.00 40 1018.9
20260510153638 59 243 1.0 1.0 0.00 0.00 0.00 39 1019.1
20260510153135 59 337 2.0 2.0 0.00 0.00 0.00 39 1019.2
20260510152631 57 332 2.0 2.0 0.00 0.00 0.00 41 1019.0
20260510152127 57 136 1.0 2.0 0.00 0.00 0.00 44 1019.0
20260510151624 57 309 2.0 2.0 0.00 0.00 0.00 40 1018.9
20260510151122 57 82 2.0 2.0 0.00 0.00 0.00 40 1018.8
20260510150622 57 215 1.0 1.0 0.00 0.00 0.00 39 1018.8
20260510150118 57 353 2.0 3.0 0.00 0.00 0.00 40 1018.8
20260510145615 57 355 1.0 1.0 0.00 0.00 0.00 44 1018.7
20260510145111 57 97 1.0 1.0 0.00 0.00 0.00 44 1018.9
20260510144607 55 191 0.0 0.0 0.00 0.00 0.00 42 1018.6
20260510144104 56 112 2.0 3.0 0.00 0.00 0.00 41 1018.7
20260510143559 56 115 0.0 1.0 0.00 0.00 0.00 46 1018.6
20260510143056 55 141 2.0 3.0 0.00 0.00 0.00 42 1018.6
20260510142553 55 61 1.0 1.0 0.00 0.00 0.00 40 1018.6
20260510142049 55 252 1.0 2.0 0.00 0.00 0.00 40 1018.5
20260510141546 55 128 1.0 2.0 0.00 0.00 0.00 40 1018.6
20260510141044 55 168 2.0 2.0 0.00 0.00 0.00 42 1018.4
20260510140540 55 118 1.0 1.0 0.00 0.00 0.00 42 1018.5
20260510140039 54 98 0.0 0.0 0.00 0.00 0.00 41 1018.6
20260510135535 55 108 4.0 5.0 0.00 0.00 0.00 41 1018.5
20260510135032 54 144 2.0 2.0 0.00 0.00 0.00 44 1018.4
20260510134529 53 51 1.0 2.0 0.00 0.00 0.00 44 1018.2
20260510134026 53 92 2.0 3.0 0.00 0.00 0.00 42 1018.4
20260510133521 54 86 5.0 6.0 0.00 0.00 0.00 42 1018.4
20260510133018 53 87 0.0 0.0 0.00 0.00 0.00 46 1018.2
20260510132515 53 61 2.0 3.0 0.00 0.00 0.00 42 1018.5
20260510132012 52 96 2.0 2.0 0.00 0.00 0.00 47 1018.4
20260510131509 52 131 3.0 5.0 0.00 0.00 0.00 45 1018.1
20260510131006 52 132 1.0 1.0 0.00 0.00 0.00 42 1018.0
20260510130502 52 68 3.0 3.0 0.00 0.00 0.00 44 1018.1
20260510130000 53 118 1.0 1.0 0.00 0.00 0.00 52 1018.1
20260510125456 52 95 0.0 0.0 0.00 0.00 0.00 54 1017.9
20260510124953 52 57 2.0 3.0 0.00 0.00 0.00 56 1018.0
20260510124449 52 96 1.0 1.0 0.00 0.00 0.00 58 1017.6
20260510123946 52 109 0.0 0.0 0.00 0.00 0.00 60 1017.6
20260510123442 51 57 0.0 0.0 0.00 0.00 0.00 65 1017.5
20260510122938 49 59 0.0 1.0 0.00 0.00 0.00 67 1017.6
20260510122433 49 56 0.0 0.0 0.00 0.00 0.00 69 1017.5
20260510121929 49 59 0.0 0.0 0.00 0.00 0.00 71 1017.4
20260510121427 48 18 0.0 0.0 0.00 0.00 0.00 73 1017.4
20260510120924 47 42 1.0 2.0 0.00 0.00 0.00 73 1017.3
20260510120422 47 39 2.0 2.0 0.00 0.00 0.00 76 1017.2
20260510115917 46 336 0.0 0.0 0.00 0.00 0.00 78 1017.5
20260510115414 44 318 0.0 0.0 0.00 0.00 0.00 82 1017.1
20260510114910 43 272 0.0 0.0 0.00 0.00 0.00 85 1017.1
20260510114408 42 272 0.0 0.0 0.00 0.00 0.00 87 1017.2
20260510113903 41 273 0.0 1.0 0.00 0.00 0.00 89 1017.0
20260510113359 41 272 0.0 0.0 0.00 0.00 0.00 89 1017.0
20260510112856 40 272 1.0 1.0 0.00 0.00 0.00 89 1017.0
20260510112353 39 272 0.0 1.0 0.00 0.00 0.00 90 1017.0
20260510111848 39 272 0.0 0.0 0.00 0.00 0.00 91 1016.8
20260510111345 38 272 1.0 1.0 0.00 0.00 0.00 92 1016.4
20260510110840 38 272 1.0 1.0 0.00 0.00 0.00 92 1016.4
20260510110338 37 272 0.0 0.0 0.00 0.00 0.00 92 1016.4
20260510105834 37 271 0.0 0.0 0.00 0.00 0.00 92 1016.5
20260510105333 37 271 0.0 0.0 0.00 0.00 0.00 92 1016.3
20260510104830 37 272 0.0 1.0 0.00 0.00 0.00 93 1016.3
20260510104327 37 271 0.0 1.0 0.00 0.00 0.00 93 1016.1
20260510103823 37 272 1.0 1.0 0.00 0.00 0.00 93 1016.1
20260510103320 37 274 0.0 0.0 0.00 0.00 0.00 93 1016.0
20260510102815 37 274 1.0 1.0 0.00 0.00 0.00 92 1016.2
20260510102312 37 281 1.0 1.0 0.00 0.00 0.00 92 1016.1
20260510101809 37 281 1.0 1.0 0.00 0.00 0.00 92 1015.7
20260510101307 37 282 1.0 1.0 0.00 0.00 0.00 92 1015.8
20260510100802 37 281 1.0 1.0 0.00 0.00 0.00 92 1015.8
20260510100301 37 282 1.0 1.0 0.00 0.00 0.00 92 1015.8
20260510095756 37 280 0.0 0.0 0.00 0.00 0.00 91 1015.7
20260510095252 37 292 1.0 1.0 0.00 0.00 0.00 92 1015.8
20260510094751 37 297 1.0 1.0 0.00 0.00 0.00 91 1015.7
20260510094246 37 296 1.0 1.0 0.00 0.00 0.00 92 1015.6
20260510093742 37 283 0.0 0.0 0.00 0.00 0.00 91 1015.6
20260510093239 37 280 1.0 1.0 0.00 0.00 0.00 91 1015.7
20260510092735 37 277 1.0 1.0 0.00 0.00 0.00 90 1015.8
20260510092231 38 278 1.0 1.0 0.00 0.00 0.00 90 1015.7
20260510091727 38 269 1.0 1.0 0.00 0.00 0.00 90 1015.7
20260510091224 38 268 0.0 1.0 0.00 0.00 0.00 89 1015.7
20260510090720 38 268 1.0 1.0 0.00 0.00 0.00 89 1015.5
20260510090218 38 269 1.0 1.0 0.00 0.00 0.00 88 1015.5
20260510085713 39 268 1.0 1.0 0.00 0.00 0.00 87 1015.4
20260510085208 39 266 1.0 1.0 0.00 0.00 0.00 87 1015.4
20260510084704 39 234 0.0 0.0 0.00 0.00 0.00 85 1015.2
20260510084201 39 276 1.0 1.0 0.00 0.00 0.00 86 1015.0
20260510083658 39 279 0.0 0.0 0.00 0.00 0.00 84 1015.2
20260510083155 40 279 1.0 1.0 0.00 0.00 0.00 84 1015.0
20260510082651 40 285 1.0 1.0 0.00 0.00 0.00 83 1015.0
20260510082146 41 285 1.0 1.0 0.00 0.00 0.00 82 1014.9
20260510081642 41 285 0.0 0.0 0.00 0.00 0.00 79 1014.8
20260510081137 42 286 0.0 1.0 0.00 0.00 0.00 78 1014.7
20260510080636 42 292 0.0 1.0 0.00 0.00 0.00 76 1014.9
20260510080134 43 291 0.0 0.0 0.00 0.00 0.00 75 1014.7
20260510075631 43 298 1.0 1.0 0.00 0.00 0.00 75 1014.5
20260510075128 43 287 0.0 0.0 0.00 0.00 0.00 76 1014.4
20260510074625 43 288 0.0 1.0 0.00 0.00 0.00 75 1014.6
20260510074120 43 287 0.0 1.0 0.00 0.00 0.00 75 1014.6
20260510073617 44 292 0.0 1.0 0.00 0.00 0.00 73 1014.3
20260510073114 44 4 0.0 0.0 0.00 0.00 0.00 72 1014.2
20260510072605 44 12 0.0 0.0 0.00 0.00 0.00 71 1014.2
20260510072101 45 48 0.0 0.0 0.00 0.00 0.00 70 1014.2
20260510071557 45 55 1.0 2.0 0.00 0.00 0.00 70 1014.3
20260510071055 45 128 0.0 0.0 0.00 0.00 0.00 70 1014.1
20260510070551 45 89 1.0 2.0 0.00 0.00 0.00 70 1014.1
20260510070049 46 91 1.0 1.0 0.00 0.00 0.00 69 1013.9
20260510065545 46 58 0.0 0.0 0.00 0.00 0.00 69 1013.9
20260510065041 46 78 0.0 0.0 0.00 0.00 0.00 70 1014.0
20260510064537 46 72 1.0 1.0 0.00 0.00 0.00 69 1013.8
20260510064034 46 96 0.0 1.0 0.00 0.00 0.00 69 1013.9
20260510063531 46 125 0.0 1.0 0.00 0.00 0.00 69 1013.8
20260510063028 46 33 0.0 1.0 0.00 0.00 0.00 69 1013.8
20260510062524 47 91 0.0 1.0 0.00 0.00 0.00 69 1013.7
20260510062019 47 70 0.0 1.0 0.00 0.00 0.00 68 1014.0
20260510061516 47 43 2.0 3.0 0.00 0.00 0.00 68 1013.8
20260510061013 47 351 0.0 0.0 0.00 0.00 0.00 67 1013.6
20260510060509 48 53 0.0 1.0 0.00 0.00 0.00 67 1013.6
20260510060006 48 2 2.0 3.0 0.00 0.00 0.00 66 1013.5
20260510055501 49 353 0.0 1.0 0.00 0.00 0.00 64 1013.4
20260510055000 49 92 0.0 0.0 0.00 0.00 0.00 64 1013.5
20260510054455 49 347 3.0 3.0 0.00 0.00 0.00 64 1013.1
20260510053950 49 357 1.0 1.0 0.00 0.00 0.00 64 1012.9
20260510053445 49 97 0.0 1.0 0.00 0.00 0.00 67 1012.9
20260510052942 47 58 1.0 1.0 0.00 0.00 0.00 69 1012.5
20260510052438 44 353 2.0 3.0 0.00 0.00 0.00 84 1012.2
20260510051934 44 265 0.0 0.0 0.00 0.00 0.00 83 1012.0
20260510051431 44 265 0.0 0.0 0.00 0.00 0.00 83 1011.9
20260510050927 44 265 0.0 0.0 0.00 0.00 0.00 82 1012.0
20260510050424 44 265 0.0 1.0 0.00 0.00 0.00 82 1012.0
20260510045921 44 265 1.0 1.0 0.00 0.00 0.00 82 1012.0
20260510045419 45 265 1.0 1.0 0.00 0.00 0.00 82 1011.9
20260510044915 45 265 1.0 1.0 0.00 0.00 0.00 81 1011.7
20260510044412 45 265 1.0 1.0 0.00 0.00 0.00 81 1011.6
20260510043909 45 265 1.0 1.0 0.00 0.00 0.00 82 1011.5
20260510043405 45 265 1.0 1.0 0.00 0.00 0.00 81 1011.6
20260510042903 45 265 1.0 1.0 0.00 0.00 0.00 81 1011.5
20260510042359 45 265 1.0 1.0 0.00 0.00 0.00 80 1011.3
20260510041854 45 264 0.0 0.0 0.00 0.00 0.00 81 1011.4
20260510041352 45 265 0.0 1.0 0.00 0.00 0.00 80 1011.2
20260510040849 46 264 0.0 1.0 0.00 0.00 0.00 79 1011.3
20260510040346 46 264 1.0 1.0 0.00 0.00 0.00 79 1011.4
20260510035841 46 264 0.0 0.0 0.00 0.00 0.00 79 1011.1
20260510035338 46 264 0.0 1.0 0.00 0.00 0.00 79 1011.0
20260510034833 46 258 1.0 1.0 0.00 0.00 0.00 79 1011.1
20260510034332 46 257 1.0 1.0 0.00 0.00 0.00 78 1011.0
20260510033828 47 249 1.0 1.0 0.00 0.00 0.00 78 1010.9
20260510033325 47 253 1.0 1.0 0.00 0.00 0.00 77 1010.7
20260510032821 48 244 1.0 1.0 0.00 0.00 0.00 77 1010.6
20260510032318 48 243 1.0 1.0 0.00 0.00 0.00 75 1010.4
20260510031813 48 243 1.0 1.0 0.00 0.00 0.00 75 1010.6
20260510031309 48 243 0.0 0.0 0.00 0.00 0.00 74 1010.4
20260510030803 48 243 0.0 0.0 0.00 0.00 0.00 72 1010.4
20260510030300 49 243 0.0 0.0 0.00 0.00 0.00 72 1010.2
20260510025757 49 243 0.0 0.0 0.00 0.00 0.00 70 1010.4
20260510025255 49 243 0.0 0.0 0.00 0.00 0.00 70 1010.3
20260510024751 49 242 0.0 0.0 0.00 0.00 0.00 70 1010.3
20260510024248 50 243 0.0 0.0 0.00 0.00 0.00 70 1010.1
20260510023743 50 243 0.0 0.0 0.00 0.00 0.00 68 1010.2
20260510023235 50 242 0.0 0.0 0.00 0.00 0.00 68 1009.9
20260510022732 51 242 0.0 1.0 0.00 0.00 0.00 68 1009.9
20260510022231 51 242 0.0 1.0 0.00 0.00 0.00 66 1009.7
20260510021726 52 241 0.0 0.0 0.00 0.00 0.00 64 1009.8
20260510021224 53 242 0.0 0.0 0.00 0.00 0.00 63 1009.5
20260510020719 53 241 1.0 1.0 0.00 0.00 0.00 63 1009.6
20260510020214 53 242 0.0 0.0 0.00 0.00 0.00 62 1009.3
20260510015710 54 230 1.0 1.0 0.00 0.00 0.00 61 1009.2
20260510015201 55 122 0.0 0.0 0.00 0.00 0.00 58 1009.2
20260510014701 55 141 0.0 0.0 0.00 0.00 0.00 58 1009.2
20260510014159 55 109 0.0 0.0 0.00 0.00 0.00 58 1008.9
20260510013654 56 147 1.0 1.0 0.00 0.00 0.00 55 1008.8
20260510013150 57 130 0.0 1.0 0.00 0.00 0.00 55 1008.6
20260510012650 59 144 1.0 1.0 0.00 0.00 0.00 52 1008.4
20260510012146 60 52 1.0 2.0 0.00 0.00 0.00 50 1008.6
20260510011641 60 286 1.0 1.0 0.00 0.00 0.00 51 1008.2
20260510011137 60 357 3.0 3.0 0.00 0.00 0.00 50 1008.0
20260510010633 61 21 3.0 3.0 0.00 0.00 0.00 49 1007.9
20260510010130 61 312 0.0 1.0 0.00 0.00 0.00 49 1007.7
20260510005625 61 126 1.0 2.0 0.00 0.00 0.00 49 1007.8
20260510005123 62 339 2.0 3.0 0.00 0.00 0.00 48 1007.5
20260510004621 62 110 1.0 2.0 0.00 0.00 0.00 47 1007.6
20260510004118 62 295 0.0 1.0 0.00 0.00 0.00 48 1007.3
20260510003615 63 299 0.0 1.0 0.00 0.00 0.00 48 1007.4
20260510003111 63 1 2.0 5.0 0.00 0.00 0.00 47 1007.3
20260510002606 64 322 1.0 1.0 0.00 0.00 0.00 47 1007.2
20260510002103 64 64 0.0 1.0 0.00 0.00 0.00 47 1007.0
20260510001601 64 335 3.0 9.0 0.00 0.00 0.00 46 1006.8
20260510001059 64 257 2.0 2.0 0.00 0.00 0.00 46 1006.8
20260510000559 65 281 2.0 2.0 0.00 0.00 0.00 46 1006.6
20260510000056 65 304 2.0 2.0 0.00 0.00 0.00 46 1006.2
20260509235553 66 4 4.0 6.0 0.00 0.00 0.00 45 1006.5
20260509235050 66 9 6.0 9.0 0.00 0.00 0.00 45 1006.3
20260509234546 66 239 1.0 1.0 0.00 0.00 0.00 44 1006.1
20260509234044 66 248 1.0 2.0 0.00 0.00 0.00 44 1006.1
20260509233541 66 279 3.0 3.0 0.00 0.00 0.00 45 1006.1
20260509233038 66 93 0.0 0.0 0.00 0.00 0.00 44 1005.9
20260509232535 67 216 3.0 3.0 0.00 0.00 0.00 44 1005.7
20260509232032 68 200 1.0 2.0 0.00 0.00 0.00 43 1005.7
20260509231528 68 277 2.0 2.0 0.00 0.00 0.00 42 1005.8
20260509231026 69 105 2.0 2.0 0.00 0.00 0.00 41 1005.8
20260509230522 70 227 1.0 2.0 0.00 0.00 0.00 41 1005.5
20260509230019 70 266 0.0 0.0 0.00 0.00 0.00 39 1005.5
20260509225515 70 313 4.0 5.0 0.00 0.00 0.00 39 1005.3
20260509225010 69 196 0.0 1.0 0.00 0.00 0.00 40 1005.5
20260509224507 69 292 1.0 2.0 0.00 0.00 0.00 40 1005.3
20260509224003 69 45 2.0 2.0 0.00 0.00 0.00 38 1005.2
20260509223500 70 267 2.0 3.0 0.00 0.00 0.00 39 1005.3
20260509222958 70 293 4.0 7.0 0.00 0.00 0.00 37 1004.9
20260509222453 70 315 2.0 3.0 0.00 0.00 0.00 38 1005.1
20260509221949 71 287 2.0 3.0 0.00 0.00 0.00 38 1004.9
20260509221445 71 279 2.0 3.0 0.00 0.00 0.00 36 1004.8
20260509220941 71 252 3.0 3.0 0.00 0.00 0.00 35 1004.8
20260509220438 71 267 3.0 3.0 0.00 0.00 0.00 35 1004.6
20260509215934 71 12 7.0 10.0 0.00 0.00 0.00 35 1004.4
20260509215429 72 292 4.0 6.0 0.00 0.00 0.00 35 1004.3
20260509214927 72 279 3.0 5.0 0.00 0.00 0.00 36 1004.3
20260509214424 71 193 1.0 2.0 0.00 0.00 0.00 35 1004.3
20260509213921 71 198 4.0 6.0 0.00 0.00 0.00 35 1004.3
20260509213416 72 255 4.0 6.0 0.00 0.00 0.00 36 1004.1
20260509212914 72 261 1.0 2.0 0.00 0.00 0.00 38 1004.4
20260509212412 72 281 2.0 2.0 0.00 0.00 0.00 39 1004.2
20260509211908 72 255 5.0 7.0 0.00 0.00 0.00 35 1004.1
20260509211403 71 325 9.0 15.0 0.00 0.00 0.00 35 1004.1
20260509210900 72 321 4.0 7.0 0.00 0.00 0.00 37 1004.0
20260509210357 73 276 1.0 1.0 0.00 0.00 0.00 37 1003.8
20260509205852 73 311 7.0 13.0 0.00 0.00 0.00 34 1003.7
20260509205346 73 309 3.0 3.0 0.00 0.00 0.00 38 1003.8
20260509204844 73 290 2.0 5.0 0.00 0.00 0.00 36 1003.5
20260509204340 73 265 3.0 9.0 0.00 0.00 0.00 35 1003.6
20260509203836 73 296 4.0 6.0 0.00 0.00 0.00 34 1003.2
20260509203333 72 296 2.0 3.0 0.00 0.00 0.00 37 1003.5
20260509202829 73 292 3.0 5.0 0.00 0.00 0.00 37 1003.4
20260509202326 72 271 2.0 3.0 0.00 0.00 0.00 40 1003.4
20260509201825 71 212 1.0 2.0 0.00 0.00 0.00 42 1003.3
20260509201322 73 292 5.0 7.0 0.00 0.00 0.00 38 1003.7
20260509200818 73 41 2.0 3.0 0.00 0.00 0.00 42 1003.7